Flag for Germany Weather past 2 weeks in Ibbenbüren, North Rhine-Westphalia, Germany

Now
36 °F

Sprinkles. Partly cloudy.


Feels Like: 25 °F
Forecast: 36 / 46 °F
Wind: 18 mph from West

Location: Muenster / Osnabrueck

Current Time: Apr 1, 2015 at 5:34:11 AM

Latest Report: Apr 1, 2015 at 4:50 AM


Visibility: N/A

Pressure: 29.77 "Hg

Humidity: 93%

Dew point: 34 °F

Location of IbbenbürenLocation

Historic Weather in Ibbenbüren — Graph

°F

Ibbenbüren temperature yesterday

Maximum temperature yesterday: 52 °F (at 6:50 AM)
Minimum temperature yesterday: 39 °F (at 1:20 AM)
Average temperature yesterday: 45 °F

Past Weeks' High & Low Weather Summary

 TemperatureHumidityPressure
High63 °F (Mar 17, 2:20 PM)100% (Mar 17, 4:50 AM)30.39 "Hg (Mar 17, 4:50 AM)
Low28 °F (Mar 23, 4:20 AM)42% (Mar 17, 2:50 PM)29.12 "Hg (Mar 31, 6:20 AM)
Average43 °F82%29.93 "Hg
* Reported Mar 17 3:20 AM — Apr 1 4:20 AM, Ibbenbüren, Weather by CustomWeather, © 2015

Note: Actual official high and low records may vary slightly from our data, if they occured in-between our weather recording intervals... More about our weather records

Advertising

Ibbenbüren weather history for previous 24 hours

 ConditionsComfort  
Time TempWeatherWind HumidityBarometerVisibility
4:20 AM
Wed, Apr 1
36 °FSprinkles. Partly cloudy.25 mph93%29.77 "HgN/A
3:50 AM39 °FPassing clouds.17 mph81%29.74 "HgN/A
3:20 AM37 °FPassing clouds.14 mph87%29.74 "HgN/A
2:50 AM39 °FSprinkles. Partly cloudy.28 mph81%29.74 "HgN/A
2:20 AM41 °FPassing clouds.18 mph70%29.71 "HgN/A
1:50 AM41 °FPassing clouds.18 mph76%29.71 "HgN/A
1:20 AM39 °FPassing clouds.15 mph81%29.71 "HgN/A
12:50 AM41 °FSprinkles. Passing clouds.15 mph76%29.71 "HgN/A
12:20 AM41 °FSprinkles. Partly cloudy.24 mph76%29.68 "HgN/A
11:50 PM
Tue, Mar 31
41 °FPartly cloudy.14 mph76%29.68 "HgN/A
11:20 PM39 °FPassing clouds.16 mph81%29.68 "HgN/A
10:50 PM39 °FThundershowers. Partly cloudy.24 mph81%29.68 "HgN/A
10:20 PM45 °FPassing clouds.18 mph61%29.65 "HgN/A
9:50 PM43 °FPassing clouds.18 mph66%29.65 "HgN/A
9:20 PM43 °FClear.23 mph66%29.65 "Hg10 mi
8:50 PM43 °FPassing clouds.20 mph76%29.65 "HgN/A
8:20 PM43 °FPassing clouds.18 mph76%29.65 "HgN/A
7:50 PM43 °FPassing clouds.22 mph71%29.62 "HgN/A
7:20 PM43 °FScattered clouds.21 mph81%29.62 "HgN/A
6:50 PM46 °FScattered clouds.28 mph62%29.59 "HgN/A
6:20 PM48 °FSprinkles. Partly sunny.21 mph62%29.59 "HgN/A
5:50 PM48 °FPartly sunny.26 mph58%29.56 "HgN/A
5:20 PM50 °FPartly sunny.23 mph54%29.56 "HgN/A
4:50 PM48 °FScattered clouds.28 mph54%29.53 "HgN/A
4:20 PM48 °FBroken clouds.25 mph66%29.53 "HgN/A
3:50 PM48 °FSprinkles. Broken clouds.29 mph71%29.50 "HgN/A
3:20 PM48 °FPartly sunny.24 mph62%29.47 "HgN/A
2:50 PM46 °FSprinkles. Partly sunny.32 mph76%29.45 "HgN/A
2:20 PM46 °FPartly sunny.31 mph76%29.42 "HgN/A
1:50 PM46 °FSprinkles. Partly sunny.32 mph87%29.39 "HgN/A
1:20 PM45 °FSprinkles. Partly sunny.33 mph76%29.39 "Hg4 mi
12:50 PM46 °FSprinkles. Partly sunny.29 mph76%29.33 "HgN/A
12:20 PM48 °FPartly sunny.38 mph76%29.30 "HgN/A
11:50 AM48 °FScattered clouds.28 mph82%29.30 "HgN/A
11:20 AM46 °FSprinkles. Partly sunny.35 mph87%29.30 "Hg3 mi
10:50 AM46 °FSprinkles. Broken clouds.38 mph82%29.24 "Hg4 mi
10:20 AM50 °FSprinkles. Partly sunny.31 mph71%29.24 "HgN/A
9:50 AM48 °FBroken clouds.25 mph82%29.24 "HgN/A
9:20 AM48 °FPartly sunny.26 mph82%29.21 "HgN/A
8:50 AM48 °FBroken clouds.24 mph82%29.21 "HgN/A
8:20 AM46 °FLight rain. Broken clouds.21 mph87%29.18 "HgN/A
7:50 AM46 °FLight rain. Partly cloudy.28 mph87%29.18 "Hg4 mi
7:20 AM52 °FLight rain. Passing clouds.35 mph82%29.12 "Hg4 mi
6:50 AM52 °FLight rain. Passing clouds.30 mph88%29.12 "Hg4 mi
6:20 AM50 °FLight rain. Partly cloudy.26 mph100%29.12 "Hg4 mi
5:50 AM46 °FLight rain. Fog.10 mph100%29.15 "Hg3 mi
5:20 AM43 °FRain. Low clouds.9 mph100%29.18 "Hg4 mi
Weather by CustomWeather, © 2015

See weather overviewHow to use our weather pages